Simultaneous Nadir Overpasses (SNOs) Predictions

Prediction of SNOs between NPP and PACE Satellite Orbit:

Table of predicted SNOs for the next 14.0 days since TLE Epoch: 10/26/2024
Index Date (NPP) Time (NPP) Lat,Lon (NPP) SZA (NPP ) Date (PACE) Time (PACE) Lat,Lon (PACE) SZA (PACE ) Distance(km) Time Diff (sec)
1 10/27/2024 18:45:03 79.95,-139.64 94.74 10/27/2024 18:46:06 79.96,-139.77 94.73 2.60 63
2 10/27/2024 19:35:43 -79.82, 28.96 85.48 10/27/2024 19:35:10 -79.81, 29.10 85.50 3.03 33
3 10/29/2024 22:20:45 -79.97, -13.75 84.53 10/29/2024 22:21:57 -79.97, -13.84 84.54 1.80 72
4 10/29/2024 23:11:25 79.81, 155.17 95.20 10/29/2024 23:11:01 79.80, 155.19 95.20 0.73 24
5 11/01/2024 02:47:08 -79.86, -79.29 84.02 11/01/2024 02:46:52 -79.86, -79.19 84.03 2.20 16
6 11/03/2024 06:22:50 79.86, 46.77 96.66 11/03/2024 06:22:41 79.86, 46.82 96.66 1.07 9
7 11/05/2024 09:58:29 -79.81, 173.35 82.78 11/05/2024 09:58:27 -79.82, 173.23 82.76 2.31 2



Historial Predications of SNOs between NPP and PACE
